Weather History for KYIP - December, 2012

Change the Weather History Date:

Friday, December 21, 2012

  Actual Average Record
Temperature  
Mean Temperature 34 °F -  
Max Temperature 36 °F 33 °F 58 °F (1949)
Min Temperature 32 °F 21 °F 0 °F (2000)
Degree Days  
Heating Degree Days 31    
Moisture  
Dew Point 28 °F    
Average Humidity 79    
Maximum Humidity 89    
Minimum Humidity 66    
Precipitation  
Precipitation 0.02 in - - ()
Sea Level Pressure  
Sea Level Pressure 29.41 in    
Wind  
Wind Speed 15 mph (WNW)    
Max Wind Speed 26 mph    
Max Gust Speed 40 mph    
Visibility 5 miles    
Events Snow    
Averages and records for this station are not official NWS values.
T = Trace of Precipitation, MM = Missing Value Source: NWS Daily Summary

Daily Weather History Graph

Daily Weather History Graph

Search for Another Location

Airport or City:

Trip Planner

Search our weather history database for the weather conditions in past years. The results will help you decide how hot, cold, wet, or windy it might be!

Date:

Astronomy

Dec. 21, 2012 Rise Set
Actual Time 7:59 AM EST 5:05 PM EST
Civil Twilight 7:27 AM EST 5:37 PM EST
Nautical Twilight 6:52 AM EST 6:12 PM EST
Astronomical Twilight 6:18 AM EST 6:46 PM EST
Moon 12:56 PM EST (12/21) 1:40 AM EST (12/21)
Length of Visible Light 10h 09m
Length of Day
9h 05m
Waxing Gibbous, 64% of the Moon is Illuminated
Dec 21
Waxing Gibbous
Dec 28
Full
Jan 4
Last Quarter
Jan 11
New
Jan 18
First Quarter

Hourly Weather History & Observations

Time (EST) Temp. Windchill Dew Point Humidity Pressure Visibility Wind Dir Wind Speed Gust Speed Precip Events Conditions
12:01 AM 35.6 °F 27.5 °F 30.2 °F 81% 29.21 in 7.0 mi South 11.5 mph - 0.00 in Snow Light Snow
12:53 AM 36.0 °F 28.0 °F 30.0 °F 79% 29.20 in 10.0 mi South 11.5 mph - 0.00 in   Overcast
1:53 AM 36.0 °F 29.0 °F 30.0 °F 79% 29.19 in 10.0 mi South 9.2 mph - 0.00 in   Overcast
2:23 AM 35.6 °F 29.9 °F 30.2 °F 81% 29.19 in 3.0 mi South 6.9 mph - 0.00 in Snow Light Snow
2:29 AM 35.6 °F 30.7 °F 30.2 °F 81% 29.19 in 1.8 mi South 5.8 mph - 0.00 in Snow Light Snow
2:42 AM 35.6 °F 31.7 °F 30.2 °F 81% 29.19 in 1.8 mi South 4.6 mph - 0.00 in Snow Light Snow
2:53 AM 35.1 °F 31.0 °F 30.9 °F 85% 29.20 in 2.0 mi South 4.6 mph - 0.00 in Snow Light Snow
3:03 AM 35.6 °F 32.8 °F 30.2 °F 81% 29.19 in 5.0 mi South 3.5 mph - 0.00 in Snow Light Snow
3:53 AM 35.1 °F - 30.9 °F 85% 29.21 in 10.0 mi Calm Calm - 0.00 in   Overcast
4:53 AM 35.1 °F 31.0 °F 30.0 °F 82% 29.21 in 10.0 mi North 4.6 mph - N/A   Overcast
5:53 AM 35.1 °F 29.3 °F 30.9 °F 85% 29.23 in 4.0 mi WSW 6.9 mph - 0.00 in Snow Light Snow
6:10 AM 35.6 °F 29.9 °F 30.2 °F 81% 29.22 in 4.0 mi WSW 6.9 mph - 0.00 in Snow Light Snow
6:27 AM 35.6 °F 28.0 °F 30.2 °F 81% 29.22 in 2.5 mi WSW 10.4 mph - 0.00 in Snow Light Snow
6:50 AM 35.6 °F 25.9 °F 30.2 °F 81% 29.23 in 3.0 mi West 16.1 mph - 0.00 in Snow Light Snow
6:53 AM 36.0 °F 26.7 °F 30.9 °F 82% 29.24 in 4.0 mi West 15.0 mph - 0.00 in Snow Light Snow
7:00 AM 35.6 °F 25.9 °F 30.2 °F 81% 29.23 in 5.0 mi WNW 16.1 mph - 0.00 in Snow Light Snow
7:19 AM 35.6 °F 24.8 °F 30.2 °F 81% 29.25 in 2.5 mi WNW 19.6 mph 27.6 mph 0.01 in Snow Light Snow
7:36 AM 35.6 °F 24.5 °F 30.2 °F 81% 29.27 in 1.8 mi WNW 20.7 mph 29.9 mph 0.01 in Snow Light Snow
7:53 AM 35.1 °F 23.5 °F - N/A% 29.29 in 1.2 mi WNW 21.9 mph 31.1 mph 0.01 in Snow Light Snow
8:00 AM 35.6 °F 24.5 °F - N/A% 29.28 in 1.5 mi NW 20.7 mph 29.9 mph 0.00 in Snow Light Snow
8:29 AM 33.8 °F 21.6 °F - N/A% 29.30 in 0.8 mi WNW 23.0 mph 32.2 mph 0.00 in Snow Light Snow
8:40 AM 33.8 °F 20.8 °F - N/A% 29.30 in 1.0 mi WNW 26.5 mph 36.8 mph 0.00 in Snow Light Snow
8:53 AM 33.1 °F 21.2 °F 30.2 °F 89% 29.33 in 0.8 mi NW 20.7 mph 35.7 mph 0.00 in Snow Light Snow
9:07 AM 33.8 °F 21.3 °F - N/A% 29.32 in 1.2 mi NW 24.2 mph 33.4 mph 0.00 in Snow Light Snow
9:45 AM 33.8 °F 21.6 °F 30.2 °F 87% 29.36 in 0.8 mi NW 23.0 mph 28.8 mph 0.00 in Snow Light Snow
9:53 AM 33.1 °F 21.2 °F 30.2 °F 89% 29.37 in 1.0 mi WNW 20.7 mph 28.8 mph 0.00 in Snow Light Snow
10:08 AM 33.8 °F 23.2 °F - N/A% 29.38 in 3.0 mi NW 17.3 mph 26.5 mph 0.00 in Snow Light Snow
10:26 AM 33.8 °F 21.9 °F - N/A% 29.39 in 2.5 mi NW 21.9 mph 34.5 mph 0.00 in Snow Light Snow
10:40 AM 33.8 °F 21.9 °F - N/A% 29.40 in 3.0 mi NW 21.9 mph 31.1 mph 0.00 in Snow Light Snow
10:47 AM 33.8 °F 21.0 °F - N/A% 29.41 in 1.8 mi NW 25.3 mph 36.8 mph 0.00 in Snow Light Snow
10:53 AM 33.1 °F 20.3 °F - N/A% 29.42 in 1.2 mi NW 24.2 mph 36.8 mph 0.00 in Snow Light Snow
11:13 AM 33.8 °F 23.2 °F - N/A% 29.42 in 2.0 mi NW 17.3 mph 24.2 mph 0.00 in Snow Light Snow
11:25 AM 33.8 °F 21.6 °F - N/A% 29.42 in 1.2 mi WNW 23.0 mph 31.1 mph 0.00 in Snow Light Snow
11:36 AM 32.0 °F 19.8 °F 28.4 °F 87% 29.43 in 3.0 mi NW 20.7 mph 32.2 mph 0.00 in Snow Light Snow
11:53 AM 32.0 °F 19.8 °F 28.0 °F 85% 29.45 in 6.0 mi NW 20.7 mph 36.8 mph 0.00 in   Overcast
12:51 PM 32.0 °F 18.9 °F 26.6 °F 80% 29.47 in 2.5 mi NW 24.2 mph 36.8 mph 0.00 in Snow Light Snow
12:53 PM 32.0 °F 18.6 °F 27.0 °F 82% 29.49 in 2.0 mi NW 25.3 mph 36.8 mph 0.00 in Snow Light Snow
1:01 PM 32.0 °F 18.6 °F 26.6 °F 80% 29.48 in 3.0 mi NW 25.3 mph 33.4 mph 0.00 in Snow Light Snow
1:08 PM 32.0 °F 18.6 °F 26.6 °F 80% 29.48 in 4.0 mi NW 25.3 mph 32.2 mph 0.00 in Snow Light Snow
1:18 PM 32.0 °F 20.5 °F 26.6 °F 80% 29.49 in 6.0 mi NW 18.4 mph 32.2 mph 0.00 in Snow Light Snow
1:53 PM 32.0 °F 18.6 °F 27.0 °F 82% 29.52 in 9.0 mi NW 25.3 mph 33.4 mph 0.00 in Snow Light Snow
2:53 PM 34.0 °F 22.4 °F 27.0 °F 75% 29.55 in 9.0 mi NW 20.7 mph - 0.00 in Snow Light Snow
3:53 PM 34.0 °F 21.3 °F 26.1 °F 73% 29.59 in 9.0 mi NW 25.3 mph 34.5 mph 0.00 in Snow Light Snow
4:53 PM 32.0 °F 18.6 °F 26.1 °F 79% 29.64 in 10.0 mi NW 25.3 mph 35.7 mph 0.00 in   Overcast
5:18 PM 33.8 °F 22.8 °F 28.4 °F 81% 29.65 in 7.0 mi NW 18.4 mph 29.9 mph N/A   Overcast
5:28 PM 33.8 °F 22.8 °F 28.4 °F 81% 29.65 in 7.0 mi NW 18.4 mph 29.9 mph N/A   Overcast
5:53 PM 35.1 °F 23.3 °F 27.0 °F 72% 29.68 in 10.0 mi NW 23.0 mph 32.2 mph N/A   Overcast
6:53 PM 35.1 °F 23.5 °F 27.0 °F 72% 29.71 in 10.0 mi NW 21.9 mph 34.5 mph 0.01 in   Overcast
7:53 PM 35.1 °F 23.0 °F 25.0 °F 67% 29.75 in 10.0 mi NNW 24.2 mph 40.3 mph N/A   Overcast
8:53 PM 35.1 °F 23.0 °F 25.0 °F 67% 29.78 in 10.0 mi NW 24.2 mph 38.0 mph N/A   Unknown
9:53 PM 34.0 °F 21.5 °F 24.1 °F 67% 29.81 in 10.0 mi NW 24.2 mph 40.3 mph N/A   Overcast
10:53 PM 34.0 °F 21.5 °F 24.1 °F 67% 29.85 in 10.0 mi NW 24.2 mph 33.4 mph N/A   Overcast
11:53 PM 33.1 °F 20.6 °F 23.0 °F 66% 29.88 in 10.0 mi NW 23.0 mph 32.2 mph N/A   Mostly Cloudy